TimeEDT,TemperatureF,Dew PointF,Humidity,Sea Level PressureIn,VisibilityMPH,Wind Direction,Wind SpeedMPH,Gust SpeedMPH,PrecipitationIn,Events,Conditions,WindDirDegrees,DateUTC
12:54 AM,46.9,42.1,83,30.20,10.0,Calm,Calm,-,N/A,,Partly Cloudy,0,2013-10-06 04:54:00
1:54 AM,46.9,43.0,86,30.21,10.0,Calm,Calm,-,N/A,,Mostly Cloudy,0,2013-10-06 05:54:00
2:54 AM,46.9,43.0,86,30.19,10.0,Calm,Calm,-,N/A,,Mostly Cloudy,0,2013-10-06 06:54:00
3:54 AM,45.0,39.9,82,30.18,10.0,Calm,Calm,-,N/A,,Partly Cloudy,0,2013-10-06 07:54:00
4:54 AM,45.0,39.9,82,30.20,10.0,Calm,Calm,-,N/A,,Partly Cloudy,0,2013-10-06 08:54:00
5:54 AM,46.0,41.0,83,30.19,10.0,Calm,Calm,-,N/A,,Overcast,0,2013-10-06 09:54:00
6:54 AM,46.9,42.1,83,30.20,10.0,Calm,Calm,-,N/A,,Overcast,0,2013-10-06 10:54:00
7:54 AM,48.0,41.0,77,30.21,10.0,Calm,Calm,-,N/A,,Overcast,0,2013-10-06 11:54:00
8:54 AM,50.0,42.1,74,30.21,10.0,Calm,Calm,-,N/A,,Overcast,0,2013-10-06 12:54:00
9:54 AM,52.0,39.9,63,30.20,10.0,Calm,Calm,-,N/A,,Overcast,0,2013-10-06 13:54:00
10:54 AM,55.0,43.0,64,30.19,10.0,Calm,Calm,-,N/A,,Overcast,0,2013-10-06 14:54:00
11:54 AM,57.0,43.0,59,30.19,10.0,SW,3.5,-,N/A,,Overcast,230,2013-10-06 15:54:00
12:54 PM,55.9,44.1,64,30.17,10.0,Variable,5.8,-,N/A,,Overcast,0,2013-10-06 16:54:00
1:45 PM,55.4,44.6,67,30.14,10.0,South,5.8,-,0.00,Rain,Light Rain,190,2013-10-06 17:45:00
1:54 PM,55.0,45.0,69,30.16,10.0,South,3.5,-,0.00,,Overcast,180,2013-10-06 17:54:00
2:54 PM,54.0,43.0,66,30.16,10.0,South,8.1,-,N/A,,Overcast,180,2013-10-06 18:54:00
3:54 PM,51.1,46.0,83,30.16,10.0,South,9.2,-,0.01,Rain,Light Rain,190,2013-10-06 19:54:00
4:54 PM,48.9,46.0,90,30.15,4.0,SE,3.5,-,0.05,Rain,Rain,130,2013-10-06 20:54:00
5:54 PM,50.0,46.9,89,30.14,4.0,SSW,6.9,-,0.07,Rain,Light Rain,210,2013-10-06 21:54:00
6:54 PM,50.0,46.9,89,30.14,10.0,SSW,6.9,-,0.03,Rain,Light Rain,210,2013-10-06 22:54:00
7:54 PM,51.1,46.9,86,30.14,10.0,SSW,6.9,-,0.00,Rain,Light Rain,210,2013-10-06 23:54:00
8:54 PM,50.0,48.0,93,30.13,10.0,Calm,Calm,-,0.01,,Overcast,0,2013-10-07 00:54:00
9:54 PM,51.1,48.0,89,30.12,10.0,SSW,4.6,-,N/A,,Overcast,200,2013-10-07 01:54:00
10:54 PM,52.0,48.0,86,30.10,10.0,SSW,9.2,-,N/A,,Overcast,200,2013-10-07 02:54:00
11:54 PM,53.1,48.0,83,30.08,10.0,South,6.9,-,N/A,,Overcast,180,2013-10-07 03:54:00